Radiation Dose at Monitoring Post of Fukushima Daini Nuclear Power Station
Date,Time,MP-1(microSv/h),MP-2(microSv/h),MP-3(microSv/h),MP-4(microSv/h),MP-5(microSv/h),MP-6(microSv/h),MP-7(microSv/h),Wind Direction,Wind Velocity(m/s),Rain
2018/02/25,00:00,0.339,0.209,0.346,0.327,0.308,0.172,0.102,northwest,3.6,No
2018/02/25,00:10,0.339,0.210,0.345,0.326,0.306,0.172,0.102,northwest,2.8,No
2018/02/25,00:20,0.339,0.211,0.346,0.328,0.308,0.172,0.103,north-northwest,4.5,No
2018/02/25,00:30,0.339,0.211,0.345,0.326,0.308,0.172,0.102,northwest,4.0,No
2018/02/25,00:40,0.338,0.210,0.346,0.327,0.308,0.172,0.102,northwest,5.4,No
2018/02/25,00:50,0.338,0.211,0.345,0.327,0.307,0.172,0.102,northwest,4.1,No
2018/02/25,01:00,0.340,0.210,0.346,0.327,0.308,0.171,0.102,north-northeast,2.1,No
2018/02/25,01:10,0.338,0.210,0.345,0.328,0.307,0.172,0.103,north,3.8,No
2018/02/25,01:20,0.338,0.211,0.346,0.328,0.306,0.173,0.102,north,3.3,No
2018/02/25,01:30,0.339,0.210,0.348,0.327,0.307,0.172,0.103,north,5.3,No
2018/02/25,01:40,0.339,0.210,0.347,0.328,0.308,0.172,0.102,north,6.2,No
2018/02/25,01:50,0.339,0.210,0.347,0.328,0.308,0.172,0.103,north,5.1,No
2018/02/25,02:00,0.339,0.210,0.347,0.327,0.307,0.172,0.103,north,6.6,No
2018/02/25,02:10,0.339,0.211,0.347,0.327,0.308,0.171,0.102,north,7.0,No
2018/02/25,02:20,0.338,0.210,0.346,0.329,0.307,0.172,0.103,north,3.0,No
2018/02/25,02:30,0.338,0.210,0.347,0.329,0.307,0.172,0.102,north,5.7,No
2018/02/25,02:40,0.340,0.210,0.347,0.329,0.308,0.173,0.103,north,3.4,No
2018/02/25,02:50,0.340,0.211,0.347,0.327,0.307,0.171,0.102,north,4.0,No
2018/02/25,03:00,0.339,0.210,0.346,0.328,0.307,0.171,0.102,north,4.3,No
2018/02/25,03:10,0.339,0.211,0.346,0.327,0.307,0.172,0.103,north,5.2,No
2018/02/25,03:20,0.339,0.210,0.346,0.328,0.308,0.172,0.103,north,5.2,No
2018/02/25,03:30,0.339,0.211,0.346,0.327,0.307,0.172,0.103,north,3.9,No
2018/02/25,03:40,0.337,0.210,0.347,0.327,0.308,0.172,0.103,north,4.7,No
2018/02/25,03:50,0.340,0.211,0.346,0.328,0.307,0.172,0.103,north,6.2,No
2018/02/25,04:00,0.339,0.211,0.347,0.327,0.307,0.173,0.103,north,4.8,No
2018/02/25,04:10,0.340,0.210,0.346,0.329,0.307,0.172,0.103,north,1.7,No
2018/02/25,04:20,0.338,0.210,0.345,0.326,0.307,0.172,0.103,north-northeast,0.8,No
2018/02/25,04:30,0.338,0.209,0.347,0.329,0.307,0.172,0.103,north-northeast,0.9,No
2018/02/25,04:40,0.339,0.211,0.349,0.328,0.308,0.171,0.103,-,CALM,No
2018/02/25,04:50,0.340,0.210,0.348,0.327,0.308,0.172,0.103,north-northwest,2.0,No
2018/02/25,05:00,0.340,0.211,0.349,0.327,0.307,0.172,0.103,north-northwest,4.1,No
2018/02/25,05:10,0.339,0.212,0.347,0.327,0.307,0.172,0.103,north,6.0,No
2018/02/25,05:20,0.339,0.211,0.347,0.329,0.306,0.172,0.103,north,8.5,No
2018/02/25,05:30,0.340,0.211,0.347,0.329,0.306,0.172,0.104,north,9.7,No
2018/02/25,05:40,0.339,0.211,0.348,0.327,0.307,0.172,0.103,north,10.7,No
2018/02/25,05:50,0.338,0.211,0.346,0.329,0.307,0.172,0.104,north,9.5,No
2018/02/25,06:00,0.338,0.210,0.348,0.328,0.308,0.173,0.102,north,4.6,No
2018/02/25,06:10,0.341,0.211,0.349,0.328,0.308,0.173,0.103,north,2.6,No
2018/02/25,06:20,0.339,0.211,0.348,0.327,0.306,0.172,0.103,north-northwest,1.6,No
2018/02/25,06:30,0.339,0.210,0.347,0.328,0.309,0.172,0.103,north-northwest,3.4,No
2018/02/25,06:40,0.340,0.209,0.347,0.327,0.307,0.172,0.102,north,4.9,No
2018/02/25,06:50,0.339,0.210,0.346,0.327,0.308,0.172,0.103,north,5.6,No
2018/02/25,07:00,0.340,0.210,0.348,0.327,0.308,0.172,0.103,north,6.6,No
2018/02/25,07:10,0.340,0.210,0.347,0.328,0.307,0.172,0.103,north,5.9,No
2018/02/25,07:20,0.340,0.211,0.347,0.329,0.308,0.172,0.103,north,4.7,No
2018/02/25,07:30,0.339,0.210,0.345,0.326,0.309,0.172,0.103,north,5.3,No
2018/02/25,07:40,0.339,0.210,0.346,0.327,0.308,0.173,0.103,north,5.4,No
2018/02/25,07:50,0.339,0.211,0.346,0.326,0.308,0.172,0.103,north,3.5,No
2018/02/25,08:00,0.338,0.212,0.347,0.326,0.308,0.173,0.103,north-northeast,4.1,No
2018/02/25,08:10,0.339,0.211,0.347,0.327,0.306,0.172,0.103,north,4.0,No
2018/02/25,08:20,0.338,0.211,0.346,0.327,0.307,0.171,0.102,north,4.7,No
2018/02/25,08:30,0.340,0.210,0.346,0.327,0.308,0.172,0.103,north,6.8,No
2018/02/25,08:40,0.337,0.211,0.346,0.327,0.307,0.172,0.102,north-northeast,3.8,No
2018/02/25,08:50,0.339,0.210,0.347,0.327,0.306,0.172,0.102,north-northeast,3.7,No
2018/02/25,09:00,0.340,0.210,0.347,0.329,0.307,0.172,0.103,north-northeast,5.2,No
2018/02/25,09:10,0.339,0.210,0.347,0.327,0.307,0.172,0.102,north-northeast,5.0,No
2018/02/25,09:20,0.340,0.209,0.346,0.326,0.307,0.173,0.102,north-northeast,3.6,No
2018/02/25,09:30,0.338,0.210,0.345,0.327,0.307,0.172,0.103,north-northeast,5.6,No
2018/02/25,09:40,0.338,0.210,0.346,0.326,0.307,0.172,0.102,northeast,5.1,No
2018/02/25,09:50,0.338,0.211,0.347,0.325,0.308,0.172,0.102,northeast,4.1,No
2018/02/25,10:00,0.337,0.210,0.345,0.327,0.308,0.171,0.102,northeast,4.0,No
2018/02/25,10:10,0.337,0.210,0.346,0.326,0.307,0.171,0.102,northeast,3.6,No
2018/02/25,10:20,0.338,0.210,0.347,0.325,0.308,0.172,0.103,northeast,3.6,No
2018/02/25,10:30,0.338,0.210,0.346,0.326,0.308,0.172,0.102,northeast,3.8,No
2018/02/25,10:40,0.337,0.211,0.347,0.327,0.307,0.171,0.103,northeast,3.9,No
2018/02/25,10:50,0.338,0.209,0.347,0.327,0.310,0.171,0.103,northeast,2.7,No
2018/02/25,11:00,0.337,0.209,0.345,0.328,0.307,0.172,0.103,northeast,3.6,No
2018/02/25,11:10,0.339,0.210,0.346,0.328,0.307,0.172,0.102,northeast,2.6,No
2018/02/25,11:20,0.337,0.210,0.346,0.327,0.309,0.172,0.102,northeast,2.9,No
2018/02/25,11:30,0.337,0.208,0.344,0.328,0.308,0.172,0.102,northeast,1.8,No
2018/02/25,11:40,0.338,0.211,0.347,0.326,0.309,0.172,0.103,east,0.8,No
2018/02/25,11:50,0.338,0.209,0.345,0.327,0.308,0.172,0.103,east,1.4,No
2018/02/25,12:00,0.337,0.209,0.345,0.328,0.307,0.172,0.103,east,1.2,No
2018/02/25,12:10,0.339,0.211,0.347,0.328,0.311,0.172,0.103,southeast,2.1,No
2018/02/25,12:20,0.338,0.209,0.347,0.328,0.307,0.172,0.103,east-southeast,1.7,No
2018/02/25,12:30,0.337,0.210,0.345,0.329,0.309,0.172,0.104,east-southeast,2.0,No
2018/02/25,12:40,0.338,0.210,0.346,0.327,0.309,0.173,0.102,east-southeast,1.6,No
2018/02/25,12:50,0.338,0.211,0.346,0.329,0.307,0.172,0.103,south-southeast,2.2,No
2018/02/25,13:00,0.339,0.210,0.344,0.328,0.308,0.173,0.103,south-southeast,1.2,No
2018/02/25,13:10,0.338,0.209,0.347,0.327,0.308,0.172,0.102,southeast,1.3,No
2018/02/25,13:20,0.338,0.211,0.345,0.326,0.308,0.172,0.103,east,1.6,No
2018/02/25,13:30,0.337,0.210,0.345,0.329,0.307,0.172,0.102,east-southeast,1.6,No
2018/02/25,13:40,0.338,0.210,0.346,0.329,0.309,0.172,0.103,southeast,2.0,No
2018/02/25,13:50,0.337,0.209,0.346,0.328,0.308,0.173,0.103,southeast,1.7,No
2018/02/25,14:00,0.338,0.210,0.345,0.329,0.308,0.172,0.102,south-southeast,2.2,No
2018/02/25,14:10,0.339,0.210,0.344,0.329,0.309,0.171,0.102,south-southeast,1.3,No
2018/02/25,14:20,0.338,0.211,0.346,0.326,0.307,0.171,0.103,south-southeast,2.2,No
2018/02/25,14:30,0.338,0.209,0.344,0.327,0.308,0.172,0.102,south-southeast,2.7,No
2018/02/25,14:40,0.340,0.209,0.345,0.329,0.307,0.170,0.103,south-southeast,1.8,No
2018/02/25,14:50,0.337,0.210,0.347,0.327,0.308,0.172,0.103,south-southeast,2.9,No
2018/02/25,15:00,0.339,0.209,0.345,0.328,0.309,0.172,0.102,south-southeast,1.9,No
2018/02/25,15:10,0.339,0.211,0.346,0.328,0.308,0.172,0.103,south-southeast,2.6,No
2018/02/25,15:20,0.337,0.211,0.347,0.328,0.308,0.172,0.102,southeast,3.0,No
2018/02/25,15:30,0.338,0.210,0.346,0.327,0.310,0.172,0.102,south-southeast,1.6,No
2018/02/25,15:40,0.339,0.210,0.345,0.328,0.309,0.171,0.103,south-southeast,2.9,No
2018/02/25,15:50,0.338,0.211,0.346,0.328,0.307,0.173,0.102,south-southeast,3.1,No
2018/02/25,16:00,0.338,0.209,0.346,0.330,0.308,0.172,0.103,south,4.6,No
2018/02/25,16:10,0.339,0.210,0.347,0.329,0.307,0.173,0.102,south,2.4,No
2018/02/25,16:20,0.339,0.209,0.345,0.328,0.307,0.172,0.103,south,2.3,No
2018/02/25,16:30,0.338,0.210,0.345,0.328,0.308,0.172,0.102,south,3.4,No
2018/02/25,16:40,0.339,0.210,0.346,0.329,0.308,0.173,0.104,south-southeast,1.3,No
2018/02/25,16:50,0.339,0.210,0.347,0.327,0.307,0.173,0.103,south,1.7,No
2018/02/25,17:00,0.339,0.210,0.346,0.328,0.308,0.171,0.102,south,3.2,No
2018/02/25,17:10,0.337,0.212,0.345,0.329,0.307,0.172,0.102,south,3.0,No
2018/02/25,17:20,0.339,0.211,0.347,0.328,0.309,0.172,0.103,south-southwest,3.0,No
2018/02/25,17:30,0.338,0.210,0.347,0.327,0.307,0.172,0.102,south-southwest,2.7,No
2018/02/25,17:40,0.339,0.209,0.346,0.328,0.307,0.171,0.102,south,3.1,No
2018/02/25,17:50,0.337,0.211,0.346,0.328,0.308,0.172,0.103,south-southwest,1.1,No
2018/02/25,18:00,0.339,0.210,0.346,0.329,0.308,0.171,0.102,south-southwest,3.3,No
2018/02/25,18:10,0.339,0.210,0.347,0.327,0.308,0.171,0.103,south,1.6,No
2018/02/25,18:20,0.339,0.209,0.344,0.328,0.308,0.173,0.104,-,CALM,No
2018/02/25,18:30,0.338,0.211,0.346,0.327,0.308,0.172,0.102,-,CALM,No
2018/02/25,18:40,0.339,0.211,0.346,0.327,0.307,0.172,0.103,south,1.1,No
2018/02/25,18:50,0.339,0.210,0.346,0.328,0.307,0.172,0.102,south-southwest,1.4,No
2018/02/25,19:00,0.339,0.211,0.346,0.327,0.307,0.171,0.102,south-southwest,3.1,No
2018/02/25,19:10,0.338,0.209,0.347,0.327,0.308,0.172,0.103,south-southwest,4.6,No
2018/02/25,19:20,0.338,0.210,0.345,0.328,0.308,0.171,0.103,south-southwest,5.1,No
2018/02/25,19:30,0.339,0.211,0.347,0.328,0.308,0.172,0.103,south-southwest,4.8,No
2018/02/25,19:40,0.339,0.210,0.346,0.329,0.307,0.171,0.103,south-southwest,3.5,No
2018/02/25,19:50,0.338,0.210,0.346,0.328,0.308,0.173,0.102,south-southwest,2.4,No
2018/02/25,20:00,0.340,0.210,0.346,0.328,0.306,0.173,0.103,south-southwest,4.9,No
2018/02/25,20:10,0.339,0.211,0.346,0.328,0.308,0.172,0.103,south-southwest,3.6,No
2018/02/25,20:20,0.338,0.211,0.347,0.328,0.308,0.172,0.104,south-southwest,3.8,No
2018/02/25,20:30,0.338,0.210,0.346,0.329,0.308,0.172,0.103,south-southwest,3.8,No
2018/02/25,20:40,0.340,0.211,0.346,0.329,0.309,0.173,0.104,west-southwest,0.9,No
2018/02/25,20:50,0.339,0.211,0.346,0.329,0.307,0.172,0.103,southwest,2.0,No
2018/02/25,21:00,0.340,0.211,0.348,0.328,0.307,0.173,0.103,south-southwest,2.2,No
2018/02/25,21:10,0.337,0.210,0.346,0.328,0.306,0.172,0.104,southwest,3.7,No
2018/02/25,21:20,0.339,0.210,0.346,0.328,0.308,0.173,0.103,southwest,3.8,No
2018/02/25,21:30,0.339,0.211,0.346,0.327,0.307,0.173,0.103,southwest,2.9,No
2018/02/25,21:40,0.339,0.210,0.347,0.328,0.308,0.173,0.102,west-southwest,3.9,No
2018/02/25,21:50,0.339,0.210,0.347,0.329,0.308,0.172,0.103,west-southwest,3.6,No
2018/02/25,22:00,0.339,0.211,0.347,0.328,0.307,0.173,0.103,west-southwest,2.4,No
2018/02/25,22:10,0.341,0.211,0.348,0.330,0.308,0.173,0.103,west,1.0,No
2018/02/25,22:20,0.340,0.210,0.347,0.329,0.309,0.173,0.103,west,0.9,No
2018/02/25,22:30,0.339,0.211,0.348,0.329,0.307,0.173,0.103,west,1.0,No
2018/02/25,22:40,0.338,0.211,0.348,0.330,0.308,0.173,0.104,southwest,0.9,No
2018/02/25,22:50,0.339,0.211,0.347,0.328,0.308,0.173,0.104,-,CALM,No
2018/02/25,23:00,0.339,0.211,0.346,0.329,0.309,0.172,0.104,-,CALM,No
2018/02/25,23:10,0.340,0.211,0.347,0.328,0.308,0.173,0.103,northwest,1.1,No
2018/02/25,23:20,0.339,0.212,0.346,0.329,0.308,0.173,0.103,west-northwest,1.1,No
2018/02/25,23:30,0.341,0.211,0.347,0.329,0.309,0.173,0.103,-,CALM,No
2018/02/25,23:40,0.341,0.211,0.348,0.329,0.309,0.172,0.104,northeast,1.1,No
2018/02/25,23:50,0.339,0.211,0.347,0.329,0.308,0.173,0.103,north,0.9,No
